PIMOHWEATHER Station Historical Data
Daily Summary for January 14, 2020 Units:  Metric    English   Both
Daily Weekly Monthly Yearly
  High: Low: Average:
Temperature: 31.0 °C 25.0 °C 27.5 °C
Dew Point: 24.0 °C 22.0 °C 22.8 °C
Humidity: 84% 66% 76%
Wind Speed: 24km/h 0km/h 7km/h
Wind Gust: 32km/h - -
Wind- - SE
Pressure: 1012.6 hPa 1009.3 hPa -
Precipitation: 0.00 mm    
 
 
Tabular Data for January 14, 2020
Time Temperature Dew Point Pressure Wind Wind Speed Wind Gust Humidity Rainfall Rate (Hourly) solar
00:04 26.0 °C 23.0 °C 1010.3 hPa WNW 5 km/h 8 km/h 83% 0.00 mm 0.00 W/m2
00:09 26.0 °C 23.0 °C 1010.3 hPa NW 8 km/h 8 km/h 83% 0.00 mm 0.00 W/m2
00:14 26.0 °C 23.0 °C 1010.1 hPa NW 4 km/h 8 km/h 83% 0.00 mm 0.00 W/m2
00:19 26.0 °C 23.0 °C 1010.3 hPa NW 1 km/h 4 km/h 83% 0.00 mm 0.00 W/m2
00:24 26.0 °C 23.0 °C 1010.1 hPa Calm     83% 0.00 mm 0.00 W/m2
00:29 26.0 °C 23.0 °C 1009.9 hPa NW 2 km/h 4 km/h 83% 0.00 mm 0.00 W/m2
00:34 26.0 °C 23.0 °C 1009.9 hPa NW 1 km/h 4 km/h 82% 0.00 mm 0.00 W/m2
00:39 26.0 °C 23.0 °C 1009.9 hPa Calm     82% 0.00 mm 0.00 W/m2
00:44 26.0 °C 23.0 °C 1009.9 hPa Calm     82% 0.00 mm 0.00 W/m2
00:49 26.0 °C 23.0 °C 1009.9 hPa NNW 5 km/h 8 km/h 82% 0.00 mm 0.00 W/m2
00:54 26.0 °C 23.0 °C 1009.9 hPa NW 6 km/h 8 km/h 82% 0.00 mm 0.00 W/m2
00:59 26.0 °C 22.0 °C 1009.9 hPa NW 7 km/h 8 km/h 82% 0.00 mm 0.00 W/m2
01:04 26.0 °C 22.0 °C 1009.9 hPa NW 5 km/h 8 km/h 81% 0.00 mm 0.00 W/m2
01:09 26.0 °C 22.0 °C 1009.9 hPa NW 5 km/h 8 km/h 81% 0.00 mm 0.00 W/m2
01:14 26.0 °C 22.0 °C 1009.9 hPa NW 4 km/h 8 km/h 81% 0.00 mm 0.00 W/m2
01:19 26.0 °C 22.0 °C 1009.9 hPa NW 5 km/h 8 km/h 81% 0.00 mm 0.00 W/m2
01:24 26.0 °C 22.0 °C 1009.9 hPa WNW 2 km/h 4 km/h 82% 0.00 mm 0.00 W/m2
01:29 26.0 °C 23.0 °C 1009.9 hPa Calm     82% 0.00 mm 0.00 W/m2
01:34 26.0 °C 22.0 °C 1009.8 hPa Calm     82% 0.00 mm 0.00 W/m2
01:39 26.0 °C 22.0 °C 1009.7 hPa Calm     82% 0.00 mm 0.00 W/m2
01:44 26.0 °C 22.0 °C 1009.6 hPa WNW 4 km/h 4 km/h 81% 0.00 mm 0.00 W/m2
01:49 26.0 °C 22.0 °C 1009.7 hPa WNW 3 km/h 4 km/h 81% 0.00 mm 0.00 W/m2
01:54 26.0 °C 22.0 °C 1009.8 hPa Calm     81% 0.00 mm 0.00 W/m2
01:59 26.0 °C 22.0 °C 1009.8 hPa North 2 km/h 4 km/h 81% 0.00 mm 0.00 W/m2
02:04 26.0 °C 22.0 °C 1009.6 hPa North 3 km/h 4 km/h 81% 0.00 mm 0.00 W/m2
02:09 26.0 °C 22.0 °C 1009.6 hPa Calm     81% 0.00 mm 0.00 W/m2
02:14 26.0 °C 22.0 °C 1009.6 hPa WNW 2 km/h 4 km/h 81% 0.00 mm 0.00 W/m2
02:19 25.0 °C 22.0 °C 1009.6 hPa WNW 2 km/h 4 km/h 82% 0.00 mm 0.00 W/m2
02:24 25.0 °C 22.0 °C 1009.6 hPa Calm     81% 0.00 mm 0.00 W/m2
02:29 25.0 °C 22.0 °C 1009.6 hPa NW 3 km/h 4 km/h 81% 0.00 mm 0.00 W/m2
02:34 25.0 °C 22.0 °C 1009.6 hPa Calm     81% 0.00 mm 0.00 W/m2
02:39 25.0 °C 22.0 °C 1009.6 hPa Calm     82% 0.00 mm 0.00 W/m2
02:44 25.0 °C 22.0 °C 1009.5 hPa Calm   4 km/h 82% 0.00 mm 0.00 W/m2
02:49 25.0 °C 22.0 °C 1009.6 hPa WNW 1 km/h 4 km/h 82% 0.00 mm 0.00 W/m2
02:54 25.0 °C 22.0 °C 1009.6 hPa NW 3 km/h 4 km/h 82% 0.00 mm 0.00 W/m2
02:59 25.0 °C 22.0 °C 1009.6 hPa Calm     82% 0.00 mm 0.00 W/m2
03:04 25.0 °C 22.0 °C 1009.5 hPa WNW 3 km/h 4 km/h 82% 0.00 mm 0.00 W/m2
03:09 25.0 °C 22.0 °C 1009.6 hPa WNW 1 km/h 4 km/h 82% 0.00 mm 0.00 W/m2
03:14 25.0 °C 22.0 °C 1009.6 hPa Calm     82% 0.00 mm 0.00 W/m2
03:19 25.0 °C 22.0 °C 1009.5 hPa North 3 km/h 4 km/h 82% 0.00 mm 0.00 W/m2
03:24 25.0 °C 22.0 °C 1009.5 hPa NNW 1 km/h 4 km/h 82% 0.00 mm 0.00 W/m2
03:29 25.0 °C 22.0 °C 1009.3 hPa WNW 3 km/h 4 km/h 81% 0.00 mm 0.00 W/m2
03:34 25.0 °C 22.0 °C 1009.3 hPa NW 3 km/h 4 km/h 82% 0.00 mm 0.00 W/m2
03:39 25.0 °C 22.0 °C 1009.3 hPa NW 5 km/h 8 km/h 82% 0.00 mm 0.00 W/m2
03:44 25.0 °C 22.0 °C 1009.3 hPa NW 5 km/h 8 km/h 82% 0.00 mm 0.00 W/m2
03:49 25.0 °C 22.0 °C 1009.3 hPa NW 4 km/h 4 km/h 82% 0.00 mm 0.00 W/m2
03:54 25.0 °C 22.0 °C 1009.3 hPa NW 4 km/h 4 km/h 82% 0.00 mm 0.00 W/m2
03:59 25.0 °C 22.0 °C 1009.3 hPa WNW 3 km/h 4 km/h 82% 0.00 mm 0.00 W/m2
04:04 25.0 °C 22.0 °C 1009.5 hPa Calm     82% 0.00 mm 0.00 W/m2
04:09 25.0 °C 22.0 °C 1009.6 hPa NW 1 km/h 4 km/h 82% 0.00 mm 0.00 W/m2
04:14 25.0 °C 22.0 °C 1009.6 hPa Calm     83% 0.00 mm 0.00 W/m2
04:19 25.0 °C 22.0 °C 1009.6 hPa Calm     83% 0.00 mm 0.00 W/m2
04:24 25.0 °C 22.0 °C 1009.6 hPa Calm     83% 0.00 mm 0.00 W/m2
04:29 25.0 °C 22.0 °C 1009.6 hPa Calm     83% 0.00 mm 0.00 W/m2
04:34 25.0 °C 22.0 °C 1009.8 hPa Calm     83% 0.00 mm 0.00 W/m2
04:39 25.0 °C 22.0 °C 1009.9 hPa Calm     83% 0.00 mm 0.00 W/m2
04:44 25.0 °C 22.0 °C 1010.0 hPa Calm     84% 0.00 mm 0.00 W/m2
04:49 25.0 °C 22.0 °C 1010.0 hPa Calm     84% 0.00 mm 0.00 W/m2
04:54 25.0 °C 22.0 °C 1010.0 hPa Calm     83% 0.00 mm 0.00 W/m2
04:59 25.0 °C 22.0 °C 1010.0 hPa Calm     83% 0.00 mm 0.00 W/m2
05:04 25.0 °C 22.0 °C 1010.0 hPa Calm     84% 0.00 mm 0.00 W/m2
05:09 25.0 °C 22.0 °C 1010.0 hPa Calm     84% 0.00 mm 0.00 W/m2
05:14 25.0 °C 22.0 °C 1010.2 hPa Calm     83% 0.00 mm 0.00 W/m2
05:19 25.0 °C 22.0 °C 1010.3 hPa Calm     83% 0.00 mm 0.00 W/m2
05:24 25.0 °C 22.0 °C 1010.3 hPa Calm     83% 0.00 mm 0.00 W/m2
05:29 25.0 °C 22.0 °C 1010.5 hPa North 4 km/h 4 km/h 83% 0.00 mm 0.00 W/m2
05:34 25.0 °C 22.0 °C 1010.4 hPa NW 4 km/h 12 km/h 82% 0.00 mm 0.00 W/m2
05:39 25.0 °C 22.0 °C 1010.5 hPa NNW 5 km/h 8 km/h 82% 0.00 mm 0.00 W/m2
05:44 25.0 °C 22.0 °C 1010.6 hPa North 4 km/h 8 km/h 83% 0.00 mm 0.00 W/m2
05:49 25.0 °C 22.0 °C 1010.6 hPa NW 3 km/h 4 km/h 83% 0.00 mm 0.00 W/m2
05:54 25.0 °C 22.0 °C 1010.6 hPa NW 3 km/h 4 km/h 83% 0.00 mm 0.00 W/m2
05:59 25.0 °C 22.0 °C 1010.6 hPa NW 4 km/h 8 km/h 83% 0.00 mm 0.00 W/m2
06:04 25.0 °C 22.0 °C 1010.6 hPa NW 5 km/h 8 km/h 83% 0.00 mm 0.00 W/m2
06:09 25.0 °C 22.0 °C 1010.6 hPa Calm   4 km/h 83% 0.00 mm 0.00 W/m2
06:14 25.0 °C 22.0 °C 1010.6 hPa Calm     83% 0.00 mm 0.00 W/m2
06:19 25.0 °C 22.0 °C 1010.8 hPa Calm     84% 0.00 mm 0.00 W/m2
06:24 25.0 °C 22.0 °C 1011.0 hPa Calm     84% 0.00 mm 0.95 W/m2
06:29 25.0 °C 22.0 °C 1011.0 hPa Calm     84% 0.00 mm 3.50 W/m2
06:34 25.0 °C 22.0 °C 1011.0 hPa NW 5 km/h 8 km/h 84% 0.00 mm 6.31 W/m2
06:39 25.0 °C 22.0 °C 1011.0 hPa NW 5 km/h 8 km/h 84% 0.00 mm 10.25 W/m2
06:44 25.0 °C 22.0 °C 1011.3 hPa NW 5 km/h 8 km/h 84% 0.00 mm 14.06 W/m2
06:49 25.0 °C 22.0 °C 1011.3 hPa NW 5 km/h 8 km/h 84% 0.00 mm 20.43 W/m2
06:54 25.0 °C 22.0 °C 1011.3 hPa NNW 2 km/h 4 km/h 84% 0.00 mm 24.34 W/m2
06:59 25.0 °C 22.0 °C 1011.3 hPa Calm     83% 0.00 mm 29.16 W/m2
07:04 25.0 °C 22.0 °C 1011.7 hPa Calm   4 km/h 83% 0.00 mm 39.76 W/m2
07:09 25.0 °C 22.0 °C 1011.7 hPa WNW 3 km/h 4 km/h 83% 0.00 mm 44.58 W/m2
07:14 26.0 °C 22.0 °C 1011.7 hPa NW 5 km/h 8 km/h 82% 0.00 mm 41.98 W/m2
07:19 26.0 °C 22.0 °C 1011.8 hPa NW 5 km/h 8 km/h 83% 0.00 mm 39.47 W/m2
07:24 25.0 °C 22.0 °C 1012.0 hPa NW 5 km/h 8 km/h 82% 0.00 mm 42.30 W/m2
07:29 25.0 °C 22.0 °C 1012.0 hPa NW 4 km/h 4 km/h 82% 0.00 mm 37.41 W/m2
07:34 26.0 °C 22.0 °C 1012.0 hPa Calm   4 km/h 82% 0.00 mm 37.40 W/m2
07:39 26.0 °C 22.0 °C 1012.0 hPa Calm   4 km/h 82% 0.00 mm 46.97 W/m2
07:44 26.0 °C 22.0 °C 1012.3 hPa NW 2 km/h 4 km/h 82% 0.00 mm 67.24 W/m2
07:49 26.0 °C 23.0 °C 1012.1 hPa NW 3 km/h 4 km/h 81% 0.00 mm 64.24 W/m2
07:54 27.0 °C 23.0 °C 1012.2 hPa North 5 km/h 8 km/h 80% 0.00 mm 66.57 W/m2
07:59 27.0 °C 23.0 °C 1012.3 hPa North 5 km/h 8 km/h 79% 0.00 mm 58.30 W/m2
08:04 26.0 °C 23.0 °C 1012.3 hPa North 4 km/h 4 km/h 79% 0.00 mm 49.56 W/m2
08:09 27.0 °C 23.0 °C 1012.5 hPa NW 3 km/h 4 km/h 79% 0.00 mm 79.86 W/m2
08:14 27.0 °C 23.0 °C 1012.6 hPa NNW 3 km/h 4 km/h 79% 0.00 mm 88.76 W/m2
08:19 28.0 °C 23.0 °C 1012.6 hPa North 8 km/h 12 km/h 77% 0.00 mm 114.80 W/m2
08:24 28.0 °C 23.0 °C 1012.5 hPa NNE 12 km/h 16 km/h 76% 0.00 mm 110.95 W/m2
08:29 28.0 °C 23.0 °C 1012.5 hPa North 10 km/h 12 km/h 76% 0.00 mm 123.60 W/m2
08:34 28.0 °C 23.0 °C 1012.6 hPa North 10 km/h 12 km/h 75% 0.00 mm 131.90 W/m2
08:39 28.0 °C 23.0 °C 1012.6 hPa North 6 km/h 8 km/h 74% 0.00 mm 135.25 W/m2
08:44 29.0 °C 23.0 °C 1012.5 hPa NNE 6 km/h 8 km/h 73% 0.00 mm 136.64 W/m2
08:49 30.0 °C 23.0 °C 1012.5 hPa NNE 4 km/h 8 km/h 71% 0.00 mm 156.51 W/m2
08:54 30.0 °C 23.0 °C 1012.4 hPa North 12 km/h 16 km/h 69% 0.00 mm 161.09 W/m2
08:59 29.0 °C 23.0 °C 1012.6 hPa North 12 km/h 16 km/h 71% 0.00 mm 168.18 W/m2
09:04 29.0 °C 23.0 °C 1012.6 hPa NNW 9 km/h 12 km/h 71% 0.00 mm 187.76 W/m2
09:09 29.0 °C 23.0 °C 1012.6 hPa NNW 10 km/h 12 km/h 70% 0.00 mm 222.38 W/m2
09:14 29.0 °C 23.0 °C 1012.5 hPa NNE 7 km/h 8 km/h 70% 0.00 mm 235.30 W/m2
09:19 30.0 °C 23.0 °C 1012.5 hPa North 8 km/h 12 km/h 70% 0.00 mm 277.72 W/m2
09:24 29.0 °C 23.0 °C 1012.3 hPa NNE 10 km/h 12 km/h 70% 0.00 mm 256.27 W/m2
09:29 29.0 °C 23.0 °C 1012.3 hPa NE 10 km/h 12 km/h 70% 0.00 mm 162.75 W/m2
09:34 29.0 °C 23.0 °C 1012.3 hPa NNW 10 km/h 12 km/h 70% 0.00 mm 140.10 W/m2
09:39 29.0 °C 23.0 °C 1012.3 hPa North 10 km/h 12 km/h 70% 0.00 mm 276.43 W/m2
09:44 29.0 °C 23.0 °C 1012.3 hPa North 14 km/h 20 km/h 70% 0.00 mm 190.43 W/m2
09:49 29.0 °C 23.0 °C 1012.3 hPa NNW 12 km/h 20 km/h 71% 0.00 mm 120.03 W/m2
09:54 29.0 °C 23.0 °C 1012.3 hPa NNW 13 km/h 16 km/h 71% 0.00 mm 119.93 W/m2
09:59 29.0 °C 23.0 °C 1012.3 hPa North 13 km/h 16 km/h 71% 0.00 mm 124.93 W/m2
10:04 29.0 °C 23.0 °C 1012.3 hPa North 13 km/h 16 km/h 70% 0.00 mm 131.58 W/m2
10:09 29.0 °C 23.0 °C 1012.3 hPa NNW 8 km/h 16 km/h 70% 0.00 mm 142.15 W/m2
10:14 29.0 °C 23.0 °C 1011.9 hPa NE 8 km/h 12 km/h 70% 0.00 mm 200.72 W/m2
10:19 29.0 °C 23.0 °C 1012.1 hPa NNE 9 km/h 12 km/h 70% 0.00 mm 197.35 W/m2
10:24 29.0 °C 23.0 °C 1011.9 hPa NE 8 km/h 12 km/h 69% 0.00 mm 350.37 W/m2
10:29 30.0 °C 23.0 °C 1011.9 hPa NNE 6 km/h 8 km/h 68% 0.00 mm 197.18 W/m2
10:34 30.0 °C 23.0 °C 1011.9 hPa NNE 8 km/h 12 km/h 69% 0.00 mm 371.87 W/m2
10:39 30.0 °C 23.0 °C 1011.9 hPa SE 5 km/h 8 km/h 68% 0.00 mm 206.16 W/m2
10:44 30.0 °C 23.0 °C 1011.9 hPa North 12 km/h 16 km/h 69% 0.00 mm 188.71 W/m2
10:49 29.0 °C 23.0 °C 1011.9 hPa North 12 km/h 16 km/h 69% 0.00 mm 173.77 W/m2
10:54 29.0 °C 23.0 °C 1011.9 hPa North 12 km/h 16 km/h 69% 0.00 mm 161.78 W/m2
10:59 29.0 °C 23.0 °C 1011.9 hPa North 13 km/h 16 km/h 69% 0.00 mm 192.53 W/m2
11:04 30.0 °C 23.0 °C 1011.6 hPa North 15 km/h 16 km/h 68% 0.00 mm 204.10 W/m2
11:09 29.0 °C 23.0 °C 1011.7 hPa North 13 km/h 16 km/h 68% 0.00 mm 150.20 W/m2
11:14 30.0 °C 23.0 °C 1011.8 hPa North 14 km/h 16 km/h 68% 0.00 mm 148.00 W/m2
11:19 30.0 °C 23.0 °C 1011.6 hPa NNE 12 km/h 16 km/h 68% 0.00 mm 244.33 W/m2
11:24 30.0 °C 23.0 °C 1011.6 hPa North 10 km/h 16 km/h 67% 0.00 mm 419.51 W/m2
11:29 30.0 °C 23.0 °C 1011.6 hPa North 10 km/h 12 km/h 67% 0.00 mm 395.07 W/m2
11:34 30.0 °C 23.0 °C 1011.3 hPa NNE 14 km/h 16 km/h 66% 0.00 mm 466.00 W/m2
11:39 30.0 °C 23.0 °C 1011.2 hPa North 10 km/h 16 km/h 66% 0.00 mm 560.54 W/m2
11:44 31.0 °C 23.0 °C 1011.2 hPa North 16 km/h 20 km/h 66% 0.00 mm 531.59 W/m2
11:49 31.0 °C 23.0 °C 1011.2 hPa North 13 km/h 16 km/h 66% 0.00 mm 324.46 W/m2
11:54 31.0 °C 23.0 °C 1011.1 hPa NNW 13 km/h 16 km/h 66% 0.00 mm 229.22 W/m2
11:59 30.0 °C 23.0 °C 1010.9 hPa NNW 15 km/h 20 km/h 67% 0.00 mm 202.93 W/m2
12:04 30.0 °C 24.0 °C 1010.9 hPa NNW 16 km/h 20 km/h 67% 0.00 mm 173.93 W/m2
12:09 30.0 °C 23.0 °C 1010.9 hPa North 20 km/h 24 km/h 67% 0.00 mm 162.92 W/m2
12:14 30.0 °C 23.0 °C 1010.9 hPa NW 14 km/h 16 km/h 67% 0.00 mm 145.93 W/m2
12:19 30.0 °C 23.0 °C 1010.7 hPa NNW 15 km/h 20 km/h 67% 0.00 mm 146.90 W/m2
12:24 30.0 °C 23.0 °C 1010.5 hPa North 14 km/h 16 km/h 67% 0.00 mm 147.17 W/m2
12:29 30.0 °C 23.0 °C 1010.5 hPa NNE 15 km/h 16 km/h 67% 0.00 mm 142.74 W/m2
12:34 30.0 °C 23.0 °C 1010.5 hPa North 10 km/h 16 km/h 67% 0.00 mm 146.04 W/m2
12:39 30.0 °C 23.0 °C 1010.5 hPa NNE 16 km/h 20 km/h 66% 0.00 mm 148.49 W/m2
12:44 30.0 °C 23.0 °C 1010.4 hPa NE 9 km/h 12 km/h 66% 0.00 mm 137.97 W/m2
12:49 30.0 °C 23.0 °C 1010.2 hPa NNE 16 km/h 20 km/h 68% 0.00 mm 135.94 W/m2
12:54 30.0 °C 24.0 °C 1010.2 hPa NNE 20 km/h 24 km/h 68% 0.00 mm 153.72 W/m2
12:59 30.0 °C 24.0 °C 1010.2 hPa NNE 19 km/h 24 km/h 68% 0.00 mm 158.03 W/m2
13:04 30.0 °C 24.0 °C 1010.2 hPa North 14 km/h 16 km/h 68% 0.00 mm 165.69 W/m2
13:09 30.0 °C 23.0 °C 1010.2 hPa NNE 17 km/h 24 km/h 67% 0.00 mm 182.45 W/m2
13:14 30.0 °C 23.0 °C 1010.2 hPa NNE 17 km/h 20 km/h 68% 0.00 mm 200.85 W/m2
13:19 30.0 °C 24.0 °C 1010.0 hPa NNE 15 km/h 20 km/h 67% 0.00 mm 189.44 W/m2
13:24 30.0 °C 23.0 °C 1009.9 hPa NNE 14 km/h 16 km/h 67% 0.00 mm 141.98 W/m2
13:29 30.0 °C 24.0 °C 1009.9 hPa NNE 12 km/h 20 km/h 68% 0.00 mm 111.87 W/m2
13:34 30.0 °C 24.0 °C 1009.9 hPa NNE 13 km/h 16 km/h 68% 0.00 mm 113.99 W/m2
13:39 30.0 °C 24.0 °C 1009.9 hPa NE 10 km/h 16 km/h 68% 0.00 mm 121.72 W/m2
13:44 30.0 °C 24.0 °C 1009.9 hPa NNE 13 km/h 16 km/h 68% 0.00 mm 124.44 W/m2
13:49 30.0 °C 24.0 °C 1009.9 hPa NNE 11 km/h 16 km/h 68% 0.00 mm 118.74 W/m2
13:54 30.0 °C 24.0 °C 1009.9 hPa NNE 17 km/h 20 km/h 69% 0.00 mm 128.69 W/m2
13:59 30.0 °C 24.0 °C 1009.9 hPa NNE 15 km/h 20 km/h 69% 0.00 mm 134.76 W/m2
14:04 30.0 °C 24.0 °C 1009.9 hPa NNW 9 km/h 20 km/h 69% 0.00 mm 132.83 W/m2
14:09 30.0 °C 24.0 °C 1009.9 hPa NE 11 km/h 16 km/h 68% 0.00 mm 132.60 W/m2
14:14 30.0 °C 24.0 °C 1009.9 hPa NNE 8 km/h 12 km/h 69% 0.00 mm 100.86 W/m2
14:19 30.0 °C 24.0 °C 1009.9 hPa ESE 5 km/h 8 km/h 69% 0.00 mm 86.98 W/m2
14:24 30.0 °C 24.0 °C 1009.9 hPa SE 11 km/h 12 km/h 70% 0.00 mm 87.64 W/m2
14:29 30.0 °C 24.0 °C 1009.9 hPa SE 8 km/h 12 km/h 71% 0.00 mm 76.94 W/m2
14:34 30.0 °C 24.0 °C 1009.7 hPa SE 3 km/h 4 km/h 70% 0.00 mm 95.56 W/m2
14:39 30.0 °C 24.0 °C 1009.7 hPa ENE 3 km/h 4 km/h 70% 0.00 mm 96.93 W/m2
14:44 30.0 °C 24.0 °C 1009.9 hPa ESE 3 km/h 4 km/h 70% 0.00 mm 72.32 W/m2
14:49 30.0 °C 24.0 °C 1009.7 hPa SE 5 km/h 8 km/h 70% 0.00 mm 55.94 W/m2
14:54 30.0 °C 24.0 °C 1009.9 hPa SE 6 km/h 12 km/h 72% 0.00 mm 61.22 W/m2
14:59 30.0 °C 24.0 °C 1009.7 hPa SE 9 km/h 12 km/h 72% 0.00 mm 62.51 W/m2
15:04 29.0 °C 24.0 °C 1009.5 hPa ESE 5 km/h 12 km/h 72% 0.00 mm 55.88 W/m2
15:09 29.0 °C 24.0 °C 1009.7 hPa SSE 4 km/h 8 km/h 71% 0.00 mm 45.34 W/m2
15:14 29.0 °C 24.0 °C 1009.7 hPa SE 3 km/h 8 km/h 71% 0.00 mm 48.67 W/m2
15:19 29.0 °C 24.0 °C 1009.7 hPa SE 5 km/h 8 km/h 71% 0.00 mm 63.62 W/m2
15:24 29.0 °C 24.0 °C 1009.5 hPa SSE 4 km/h 8 km/h 71% 0.00 mm 74.89 W/m2
15:29 29.0 °C 24.0 °C 1009.7 hPa NNW 5 km/h 8 km/h 71% 0.00 mm 79.17 W/m2
15:34 29.0 °C 24.0 °C 1009.5 hPa SE 5 km/h 8 km/h 71% 0.00 mm 89.20 W/m2
15:39 30.0 °C 24.0 °C 1009.9 hPa ENE 3 km/h 4 km/h 70% 0.00 mm 89.04 W/m2
15:44 29.0 °C 23.0 °C 1009.9 hPa NNE 17 km/h 20 km/h 71% 0.00 mm 73.88 W/m2
15:49 29.0 °C 24.0 °C 1009.9 hPa NNE 8 km/h 12 km/h 71% 0.00 mm 86.58 W/m2
15:54 29.0 °C 23.0 °C 1009.9 hPa North 14 km/h 16 km/h 71% 0.00 mm 87.96 W/m2
15:59 29.0 °C 23.0 °C 1009.9 hPa NNE 12 km/h 16 km/h 71% 0.00 mm 82.00 W/m2
16:04 29.0 °C 23.0 °C 1009.9 hPa NNE 9 km/h 12 km/h 70% 0.00 mm 57.01 W/m2
16:09 29.0 °C 23.0 °C 1009.9 hPa NNE 10 km/h 12 km/h 70% 0.00 mm 54.88 W/m2
16:14 29.0 °C 24.0 °C 1009.9 hPa North 19 km/h 20 km/h 72% 0.00 mm 59.74 W/m2
16:19 29.0 °C 24.0 °C 1010.1 hPa NNE 24 km/h 32 km/h 73% 0.00 mm 75.27 W/m2
16:24 29.0 °C 24.0 °C 1010.2 hPa NNE 17 km/h 24 km/h 73% 0.00 mm 79.46 W/m2
16:29 29.0 °C 24.0 °C 1010.2 hPa NNE 15 km/h 20 km/h 73% 0.00 mm 73.74 W/m2
16:34 29.0 °C 24.0 °C 1010.2 hPa NNE 20 km/h 24 km/h 73% 0.00 mm 65.99 W/m2
16:39 29.0 °C 24.0 °C 1010.2 hPa NNE 19 km/h 20 km/h 73% 0.00 mm 76.12 W/m2
16:44 29.0 °C 23.0 °C 1010.2 hPa NNE 14 km/h 16 km/h 73% 0.00 mm 76.04 W/m2
16:49 29.0 °C 23.0 °C 1010.4 hPa North 21 km/h 28 km/h 74% 0.00 mm 69.81 W/m2
16:54 29.0 °C 24.0 °C 1010.4 hPa North 21 km/h 24 km/h 74% 0.00 mm 64.64 W/m2
16:59 29.0 °C 24.0 °C 1010.4 hPa North 15 km/h 20 km/h 74% 0.00 mm 55.78 W/m2
17:04 29.0 °C 23.0 °C 1010.6 hPa NNE 15 km/h 20 km/h 74% 0.00 mm 42.36 W/m2
17:09 29.0 °C 23.0 °C 1010.6 hPa NNE 15 km/h 16 km/h 74% 0.00 mm 27.12 W/m2
17:14 28.0 °C 23.0 °C 1010.4 hPa North 15 km/h 20 km/h 74% 0.00 mm 21.13 W/m2
17:19 28.0 °C 24.0 °C 1010.6 hPa North 15 km/h 20 km/h 75% 0.00 mm 19.83 W/m2
17:24 28.0 °C 24.0 °C 1010.6 hPa North 16 km/h 20 km/h 75% 0.00 mm 14.28 W/m2
17:29 28.0 °C 24.0 °C 1010.9 hPa NNE 14 km/h 16 km/h 75% 0.00 mm 7.86 W/m2
17:34 28.0 °C 23.0 °C 1010.9 hPa North 15 km/h 20 km/h 75% 0.00 mm 3.87 W/m2
17:39 28.0 °C 23.0 °C 1010.9 hPa North 18 km/h 20 km/h 75% 0.00 mm 1.55 W/m2
17:44 28.0 °C 23.0 °C 1010.9 hPa NNE 14 km/h 20 km/h 75% 0.00 mm 0.20 W/m2
17:49 28.0 °C 23.0 °C 1010.9 hPa North 18 km/h 20 km/h 75% 0.00 mm 0.00 W/m2
17:54 28.0 °C 23.0 °C 1010.9 hPa North 13 km/h 16 km/h 75% 0.00 mm 0.00 W/m2
17:59 28.0 °C 23.0 °C 1010.9 hPa NNE 16 km/h 20 km/h 75% 0.00 mm 0.00 W/m2
18:04 28.0 °C 23.0 °C 1010.9 hPa NNE 17 km/h 20 km/h 76% 0.00 mm 0.00 W/m2
18:09 28.0 °C 23.0 °C 1010.9 hPa NNE 13 km/h 20 km/h 76% 0.00 mm 0.00 W/m2
18:14 28.0 °C 23.0 °C 1010.9 hPa NNE 15 km/h 20 km/h 76% 0.00 mm 0.00 W/m2
18:19 28.0 °C 23.0 °C 1011.2 hPa NNE 12 km/h 16 km/h 76% 0.00 mm 0.00 W/m2
18:24 28.0 °C 23.0 °C 1011.2 hPa NNE 13 km/h 16 km/h 76% 0.00 mm 0.00 W/m2
18:29 28.0 °C 23.0 °C 1011.2 hPa NNE 10 km/h 12 km/h 76% 0.00 mm 0.00 W/m2
18:34 28.0 °C 23.0 °C 1011.2 hPa NNE 10 km/h 12 km/h 76% 0.00 mm 0.00 W/m2
18:39 28.0 °C 23.0 °C 1011.2 hPa NNE 12 km/h 16 km/h 76% 0.00 mm 0.00 W/m2
18:44 28.0 °C 23.0 °C 1011.5 hPa NNE 11 km/h 16 km/h 76% 0.00 mm 0.00 W/m2
18:49 28.0 °C 23.0 °C 1011.5 hPa NNE 8 km/h 12 km/h 76% 0.00 mm 0.00 W/m2
18:54 28.0 °C 23.0 °C 1011.5 hPa NNE 12 km/h 16 km/h 76% 0.00 mm 0.00 W/m2
18:59 28.0 °C 23.0 °C 1011.6 hPa NNE 13 km/h 20 km/h 76% 0.00 mm 0.00 W/m2
19:04 28.0 °C 23.0 °C 1011.6 hPa NNE 11 km/h 16 km/h 76% 0.00 mm 0.00 W/m2
19:09 28.0 °C 23.0 °C 1011.6 hPa NNE 13 km/h 16 km/h 76% 0.00 mm 0.00 W/m2
19:14 28.0 °C 23.0 °C 1011.6 hPa NNE 12 km/h 16 km/h 76% 0.00 mm 0.00 W/m2
19:19 28.0 °C 23.0 °C 1011.6 hPa NNE 12 km/h 16 km/h 76% 0.00 mm 0.00 W/m2
19:24 28.0 °C 23.0 °C 1011.6 hPa North 9 km/h 12 km/h 75% 0.00 mm 0.00 W/m2
19:29 28.0 °C 23.0 °C 1011.6 hPa NNE 8 km/h 12 km/h 75% 0.00 mm 0.00 W/m2
19:34 28.0 °C 23.0 °C 1011.6 hPa NNE 9 km/h 12 km/h 75% 0.00 mm 0.00 W/m2
19:39 28.0 °C 23.0 °C 1011.6 hPa NNE 9 km/h 12 km/h 76% 0.00 mm 0.00 W/m2
19:44 28.0 °C 23.0 °C 1011.6 hPa NNE 9 km/h 12 km/h 76% 0.00 mm 0.00 W/m2
19:49 28.0 °C 23.0 °C 1011.8 hPa NNE 8 km/h 12 km/h 76% 0.00 mm 0.00 W/m2
19:54 28.0 °C 23.0 °C 1011.9 hPa NE 5 km/h 8 km/h 76% 0.00 mm 0.00 W/m2
19:59 28.0 °C 23.0 °C 1012.0 hPa NNE 5 km/h 8 km/h 76% 0.00 mm 0.00 W/m2
20:04 28.0 °C 23.0 °C 1012.0 hPa NNE 6 km/h 8 km/h 76% 0.00 mm 0.00 W/m2
20:09 27.0 °C 23.0 °C 1012.0 hPa NNE 6 km/h 8 km/h 76% 0.00 mm 0.00 W/m2
20:14 27.0 °C 23.0 °C 1012.0 hPa NNE 10 km/h 12 km/h 76% 0.00 mm 0.00 W/m2
20:19 27.0 °C 23.0 °C 1012.0 hPa NNE 10 km/h 12 km/h 76% 0.00 mm 0.00 W/m2
20:24 27.0 °C 23.0 °C 1012.0 hPa NNE 10 km/h 12 km/h 76% 0.00 mm 0.00 W/m2
20:29 27.0 °C 23.0 °C 1012.0 hPa NNE 5 km/h 8 km/h 76% 0.00 mm 0.00 W/m2
20:34 27.0 °C 23.0 °C 1012.2 hPa NNE 5 km/h 8 km/h 76% 0.00 mm 0.00 W/m2
20:39 27.0 °C 23.0 °C 1012.0 hPa NNW 4 km/h 8 km/h 76% 0.00 mm 0.00 W/m2
20:44 27.0 °C 23.0 °C 1012.0 hPa North 4 km/h 8 km/h 76% 0.00 mm 0.00 W/m2
20:49 27.0 °C 23.0 °C 1012.0 hPa North 5 km/h 8 km/h 76% 0.00 mm 0.00 W/m2
20:54 27.0 °C 23.0 °C 1012.0 hPa NNE 8 km/h 12 km/h 76% 0.00 mm 0.00 W/m2
20:59 27.0 °C 23.0 °C 1012.2 hPa NNE 6 km/h 8 km/h 76% 0.00 mm 0.00 W/m2
21:04 27.0 °C 23.0 °C 1012.3 hPa NNE 7 km/h 8 km/h 76% 0.00 mm 0.00 W/m2
21:09 27.0 °C 23.0 °C 1012.3 hPa ENE 4 km/h 8 km/h 76% 0.00 mm 0.00 W/m2
21:14 27.0 °C 23.0 °C 1012.3 hPa NNE 5 km/h 8 km/h 75% 0.00 mm 0.00 W/m2
21:19 27.0 °C 23.0 °C 1012.3 hPa NE 4 km/h 4 km/h 75% 0.00 mm 0.00 W/m2
21:24 27.0 °C 23.0 °C 1012.3 hPa North 8 km/h 8 km/h 76% 0.00 mm 0.00 W/m2
21:29 27.0 °C 23.0 °C 1012.3 hPa North 6 km/h 12 km/h 76% 0.00 mm 0.00 W/m2
21:34 27.0 °C 23.0 °C 1012.3 hPa North 9 km/h 12 km/h 76% 0.00 mm 0.00 W/m2
21:39 27.0 °C 23.0 °C 1012.4 hPa NNE 8 km/h 12 km/h 76% 0.00 mm 0.00 W/m2
21:44 27.0 °C 23.0 °C 1012.3 hPa NNW 5 km/h 8 km/h 77% 0.00 mm 0.00 W/m2
21:49 27.0 °C 23.0 °C 1012.5 hPa North 4 km/h 4 km/h 77% 0.00 mm 0.00 W/m2
21:54 27.0 °C 22.0 °C 1012.3 hPa NNE 4 km/h 4 km/h 76% 0.00 mm 0.00 W/m2
21:59 27.0 °C 23.0 °C 1012.5 hPa North 4 km/h 4 km/h 77% 0.00 mm 0.00 W/m2
22:04 27.0 °C 23.0 °C 1012.3 hPa Calm     77% 0.00 mm 0.00 W/m2
22:09 27.0 °C 23.0 °C 1012.6 hPa Calm     76% 0.00 mm 0.00 W/m2
22:14 27.0 °C 23.0 °C 1012.3 hPa Calm     76% 0.00 mm 0.00 W/m2
22:19 27.0 °C 23.0 °C 1012.3 hPa Calm     76% 0.00 mm 0.00 W/m2
22:24 27.0 °C 23.0 °C 1012.6 hPa Calm     76% 0.00 mm 0.00 W/m2
22:29 27.0 °C 23.0 °C 1012.6 hPa Calm   4 km/h 76% 0.00 mm 0.00 W/m2
22:34 27.0 °C 23.0 °C 1012.6 hPa Calm     76% 0.00 mm 0.00 W/m2
22:39 27.0 °C 23.0 °C 1012.6 hPa Calm     76% 0.00 mm 0.00 W/m2
22:44 27.0 °C 23.0 °C 1012.5 hPa Calm     76% 0.00 mm 0.00 W/m2
22:49 27.0 °C 23.0 °C 1012.6 hPa SSE 1 km/h 4 km/h 76% 0.00 mm 0.00 W/m2
22:54 27.0 °C 22.0 °C 1012.6 hPa Calm     76% 0.00 mm 0.00 W/m2
22:59 27.0 °C 22.0 °C 1012.6 hPa Calm     76% 0.00 mm 0.00 W/m2
23:04 27.0 °C 23.0 °C 1012.6 hPa Calm     77% 0.00 mm 0.00 W/m2
23:09 27.0 °C 23.0 °C 1012.6 hPa Calm     77% 0.00 mm 0.00 W/m2
23:14 27.0 °C 23.0 °C 1012.6 hPa Calm     77% 0.00 mm 0.00 W/m2
23:19 27.0 °C 23.0 °C 1012.5 hPa Calm     77% 0.00 mm 0.00 W/m2
23:24 27.0 °C 23.0 °C 1012.3 hPa Calm     77% 0.00 mm 0.00 W/m2
23:29 27.0 °C 22.0 °C 1012.3 hPa Calm     77% 0.00 mm 0.00 W/m2
23:34 27.0 °C 22.0 °C 1012.3 hPa NW 3 km/h 4 km/h 77% 0.00 mm 0.00 W/m2
23:39 27.0 °C 22.0 °C 1012.3 hPa North 2 km/h 4 km/h 77% 0.00 mm 0.00 W/m2
23:44 27.0 °C 22.0 °C 1012.3 hPa North 4 km/h 4 km/h 77% 0.00 mm 0.00 W/m2
23:49 27.0 °C 22.0 °C 1012.6 hPa North 1 km/h 4 km/h 77% 0.00 mm 0.00 W/m2
23:54 27.0 °C 22.0 °C 1012.6 hPa North 3 km/h 4 km/h 77% 0.00 mm 0.00 W/m2
23:59 26.0 °C 22.0 °C 1012.6 hPa North 3 km/h 4 km/h 77% 0.00 mm 0.00 W/m2
PIMOHWEATHER Philippines
Compliments of Weather Underground - 2 mb